Location: ???????
(55.3754°N, 39.3545°E)
Time: 05:26:57
(UTC+00:00)

Cosmos 1605 Rocket - Pass Details

Date: 14 April 2026
Orbit: 945 x 1004 km, 82.9° (Epoch: 10 May)

Event Time Altitude Azimuth Distance (km) Brightness Sun altitude
Exits shadow 20:17:09 38° 210° (SSW) 1,401 4.5 -23.5°
Maximum altitude 20:19:34 72° 284° (WNW) 999 4.0 -23.6°
Drops below altitude 10° 20:25:43 10° 9° (N) 2,693 7.2 -23.9°
Sets 20:28:15 0° 12° (NNE) 3,649 8.0 -24.0°
